CAPE
151 127 180 282 224 243 192 144 93 60 35 13 3 0 3 1 0 0 0 0 0 11 223 638 793 296 23 9 0 0 0 25 56 104 315 566 689 545 458 462 422 417 372
215 123 174 285 354 349 290 242 225 176 95 24 16 28 49 54 66 65 45 10 42 24 34 159 316 177 507 468 358 336 188 21 9 0 41 194 375 744 617 552 523 496 418
266 133 253 341 474 465 380 361 340 250 162 68 36 21 17 63 32 21 12 18 3 27 86 38 1 15 88 149 226 336 546 534 357 61 18 12 62 218 587 540 551 517 552
551 438 362 526 544 542 529 406 237 184 110 75 49 10 45 20 6 22 29 44 20 11 1 1 19 142 240 315 314 409 596 743 838 634 148 97 102 124 135 439 525 505 525
755 730 643 608 646 529 435 294 57 52 55 19 1 0 1 7 6 0 0 6 27 26 23 0 8 42 141 254 457 713 842 834 1078 1083 749 569 328 152 152 168 324 506 439
893 766 445 516 358 143 100 53 13 15 16 0 0 0 7 5 0 0 0 1 2 0 0 0 0 4 5 61 80 273 199 162 386 1301 1344 1100 883 675 459 226 224 337 491
1020 787 492 251 90 50 48 0 0 0 0 0 13 2 0 0 0 0 0 0 0 0 0 0 1 5 9 6 4 8 9 18 408 1288 1692 1235 1094 909 826 782 333 300 479
764 498 319 111 56 24 0 0 0 0 0 0 0 0 0 0 0 0 0 0 0 0 0 19 15 20 29 0 1 0 2 4 473 1245 1573 966 969 838 806 1001 759 438 483
965 729 430 207 96 62 66 17 14 10 71 0 0 0 0 0 0 0 0 0 0 0 0 18 47 52 58 25 2 8 59 154 465 1005 1281 805 790 514 482 781 991 689 782
85 262 445 343 370 217 226 154 47 20 0 0 0 0 0 0 0 0 0 0 0 0 14 0 10 49 78 89 122 242 326 430 456 728 1020 697 570 510 609 588 590 1021 876
0 0 0 0 0 0 0 0 0 0 0 0 0 0 0 0 0 2 0 0 0 0 0 7 74 185 213 212 235 260 298 329 570 782 677 673 558 403 505 659 977 975 1108
0 0 0 0 0 0 0 0 0 0 0 0 0 0 3 4 5 12 7 1 2 3 1 3 28 24 31 147 218 230 220 227 314 390 566 377 215 343 391 727 762 761 680
0 0 0 0 0 0 0 0 0 0 0 0 0 0 0 0 0 0 3 2 2 0 2 4 3 34 56 39 57 99 150 199 194 188 173 144 129 267 269 497 750 454 356
0 0 0 0 0 0 0 0 0 0 0 0 0 0 0 0 0 0 0 2 2 1 0 0 3 13 0 0 0 15 10 19 20 23 1 5 0 75 132 298 368 277 406
0 0 0 0 0 0 0 0 0 0 0 0 0 0 0 0 0 0 0 0 1 2 0 1 3 1 0 0 0 0 0 0 0 0 0 0 0 2 0 88 172 250 476
0 0 0 0 0 0 0 0 0 0 0 0 0 0 0 0 0 0 0 0 0 0 0 0 0 0 0 0 0 0 0 0 0 0 0 0 1 23 0 146 207 340 458
0 0 0 0 0 0 0 0 0 0 0 0 0 0 0 0 0 0 0 0 0 0 0 0 0 0 0 0 0 0 0 0 0 0 0 0 0 24 52 229 218 208 265
0 0 0 0 0 0 0 0 0 0 0 0 0 0 0 0 0 0 0 0 0 0 0 0 0 0 0 0 0 0 0 0 0 0 0 0 1 16 159 206 122 121 150
0 0 0 0 0 0 0 0 0 0 0 0 0 0 0 0 0 0 0 0 0 0 0 0 0 0 0 0 0 0 5 5 0 0 0 0 0 7 79 70 49 38 26
0 0 0 0 0 0 0 0 0 0 0 0 0 0 0 0 0 0 0 0 0 0 0 0 1 0 0 0 1 0 0 0 0 0 0 0 1 6 9 1 5 0 6
0 0 0 0 0 0 0 0 0 0 0 0 0 0 0 0 0 0 1 0 0 0 1 1 1 0 0 0 0 0 0 0 0 0 0 0 0 0 2 0 4 0 0
0 0 0 0 0 0 0 0 0 0 0 0 0 0 0 0 0 0 0 0 1 1 1 1 1 1 0 0 0 0 0 0 0 0 3 0 2 0 0 0 0 1 0
0 0 0 0 0 0 0 0 0 0 0 0 0 0 0 0 0 1 0 0 0 0 1 2 1 0 0 0 0 0 0 0 0 0 0 0 0 3 0 2 0 0 0
0 0 0 0 0 0 0 0 0 0 0 0 0 2 2 1 1 2 1 2 2 1 1 0 1 0 0 0 0 0 0 0 0 0 0 0 0 0 14 4 0 0 0
0 0 0 0 0 0 0 0 1 2 1 0 1 1 1 2 0 0 2 4 3 2 1 0 0 0 0 0 0 0 1 1 1 0 2 0 0 3 0 0 0 0 0
0 0 0 0 0 0 0 1 2 4 7 5 3 1 0 0 0 0 0 1 2 1 2 1 0 0 0 0 0 0 1 3 2 1 2 4 0 1 0 0 0 0 1
CIN
-267 -305 -244 -189 -185 -178 -184 -210 -257 -287 -328 -398 -434 -0 -394 -153 -0 -0 -0 -0 -0 -258 -141 -96 -62 -87 -178 -256 -0 -0 -81 -261 -234 -200 -154 -128 -106 -130 -143 -150 -125 -131 -135
-191 -279 -238 -159 -115 -114 -141 -166 -192 -208 -278 -355 -359 -364 -336 -342 -323 -342 -347 -316 -241 -262 -241 -187 -163 -182 -108 -119 -137 -148 -194 -245 -164 -49 -234 -180 -140 -97 -114 -116 -111 -116 -124
-128 -225 -166 -133 -101 -115 -106 -131 -149 -179 -202 -250 -264 -338 -294 -284 -260 -303 -322 -353 -337 -279 -213 -217 -207 -229 -235 -206 -167 -156 -130 -140 -150 -231 -256 -274 -246 -175 -110 -126 -125 -113 -117
-105 -132 -124 -105 -112 -105 -112 -140 -161 -179 -243 -236 -245 -279 -281 -247 -182 -192 -169 -227 -229 -252 -21 -216 -166 -135 -136 -134 -120 -103 -103 -95 -90 -113 -179 -208 -220 -227 -204 -143 -128 -118 -136
-73 -85 -73 -75 -80 -105 -127 -127 -201 -192 -169 -204 -109 -0 -44 -130 -187 -0 -0 -134 -147 -158 -200 -0 -239 -208 -131 -144 -115 -86 -66 -89 -55 -83 -82 -94 -111 -165 -208 -212 -158 -132 -114
-79 -73 -117 -114 -164 -214 -199 -190 -174 -229 -193 -0 -0 -0 -122 -194 -0 -0 -0 -64 -60 -0 -0 -0 -0 -268 -179 -210 -121 -139 -82 -96 -76 -54 -65 -72 -72 -87 -99 -167 -187 -160 -141
-68 -73 -110 -156 -205 -196 -194 -1 -0 -0 -0 -0 -170 -138 -1 -0 -0 -0 -0 -0 -0 -0 -0 -0 -270 -249 -256 -198 -167 -96 -69 -41 -66 -64 -51 -77 -65 -65 -75 -104 -156 -170 -136
-101 -135 -175 -248 -273 -285 -0 -0 -0 -0 -0 -0 -0 -0 -0 -0 -0 -0 -0 -0 -0 -0 -0 -165 -142 -153 -197 -13 -68 -0 -45 -33 -43 -58 -44 -61 -49 -57 -55 -79 -106 -131 -116
-118 -143 -175 -219 -306 -300 -267 -321 -311 -297 -168 -0 -0 -0 -0 -0 -0 -0 -0 -0 -0 -0 -0 -222 -183 -131 -141 -128 -44 -34 -39 -34 -50 -52 -28 -31 -46 -52 -49 -61 -67 -93 -91
-340 -230 -153 -156 -141 -190 -168 -156 -225 -208 -0 -0 -0 -0 -0 -0 -0 -0 -0 -0 -0 -0 -265 -0 -212 -195 -130 -100 -80 -63 -56 -61 -49 -29 -22 -23 -32 -46 -47 -45 -51 -54 -70
-0 -0 -0 -0 -0 -0 -0 -0 -0 -0 -0 -0 -0 -0 -0 -0 -0 -0 -0 -0 -0 -0 -0 -176 -132 -119 -167 -85 -60 -56 -64 -65 -59 -33 -24 -35 -35 -28 -32 -25 -41 -44 -52
-0 -0 -0 -0 -0 -0 -0 -0 -0 -0 -0 -0 -0 -0 -0 -0 -0 -1 -1 -1 -0 -1 -2 -24 -104 -262 -184 -161 -87 -82 -75 -92 -82 -72 -56 -50 -38 -31 -25 -17 -23 -26 -24
-0 -0 -0 -0 -0 -0 -0 -0 -0 -0 -0 -0 -0 -0 -0 -0 -0 -0 -0 -0 -0 -0 -5 -32 -39 -89 -99 -118 -138 -105 -92 -98 -107 -102 -91 -74 -76 -46 -38 -45 -26 -38 -38
-0 -0 -0 -0 -0 -0 -0 -0 -0 -0 -0 -0 -0 -0 -0 -0 -0 -0 -0 -0 -0 -0 -0 -0 -2 -3 -15 -0 -46 -224 -202 -176 -163 -147 -16 -135 -0 -76 -61 -43 -42 -52 -49
-0 -0 -0 -0 -0 -0 -0 -0 -0 -0 -0 -0 -0 -0 -0 -0 -0 -0 -0 -0 -0 -0 -0 -0 -0 -3 -0 -0 -0 -0 -0 -0 -0 -0 -0 -0 -0 -58 -0 -80 -100 -81 -102
-0 -0 -0 -0 -0 -0 -0 -0 -0 -0 -0 -0 -0 -0 -0 -0 -0 -0 -0 -0 -0 -0 -0 -0 -0 -0 -0 -0 -0 -0 -0 -0 -0 -0 -0 -0 -24 -171 -0 -90 -78 -61 -72
-0 -0 -0 -0 -0 -0 -0 -0 -0 -0 -0 -0 -0 -0 -0 -0 -0 -0 -0 -0 -0 -0 -0 -0 -0 -0 -0 -0 -0 -0 -0 -0 -0 -0 -0 -0 -0 -97 -134 -87 -118 -111 -85
-0 -0 -0 -0 -0 -0 -0 -0 -0 -0 -0 -0 -0 -0 -0 -0 -0 -0 -0 -0 -0 -0 -0 -0 -0 -0 -0 -0 -0 -2 -0 -0 -0 -0 -0 -0 -43 -165 -114 -72 -107 -100 -93
-0 -0 -0 -0 -0 -0 -0 -0 -0 -0 -0 -0 -0 -0 -0 -0 -0 -0 -0 -0 -0 -0 -0 -0 -0 -0 -0 -0 -0 -0 -3 -3 -0 -0 -0 -0 -0 -123 -125 -85 -115 -132 -139
-0 -0 -0 -0 -0 -0 -0 -0 -0 -0 -0 -0 -0 -0 -0 -0 -0 -0 -0 -0 -0 -0 -0 -0 -0 -0 -2 -0 -1 -0 -0 -0 -0 -0 -0 -0 -19 -81 -94 -64 -64 -0 -146
-0 -0 -0 -0 -0 -0 -0 -0 -0 -0 -0 -0 -0 -0 -0 -0 -0 -0 -0 -0 -0 -0 -0 -0 -0 -0 -0 -0 -0 -0 -0 -0 -0 -0 -0 -0 -0 -0 -76 -0 -98 -0 -0
-0 -0 -0 -0 -0 -0 -0 -0 -0 -0 -0 -0 -0 -0 -0 -0 -0 -0 -0 -0 -0 -0 -0 -0 -0 -0 -0 -0 -0 -0 -0 -0 -0 -0 -1 -0 -13 -0 -65 -16 -0 -106 -0
-0 -0 -0 -0 -0 -0 -0 -0 -0 -0 -0 -0 -0 -0 -0 -0 -0 -0 -0 -0 -0 -0 -0 -0 -0 -0 -0 -0 -0 -0 -0 -0 -0 -0 -0 -0 -0 -0 -81 -95 -0 -0 -0
-0 -0 -0 -0 -0 -0 -0 -0 -0 -0 -0 -0 -0 -0 -0 -0 -0 -0 -0 -0 -0 -0 -0 -0 -0 -0 -0 -0 -0 -0 -0 -0 -0 -0 -0 -0 -0 -0 -56 -102 -0 -0 -0
-0 -0 -0 -0 -0 -0 -0 -0 -0 -0 -0 -0 -0 -0 -0 -0 -0 -0 -0 -0 -0 -0 -0 -0 -0 -0 -0 -0 -0 -0 -0 -0 -0 -0 -0 -0 -0 -22 -11 -0 -0 -0 -0
-0 -0 -0 -0 -0 -0 -0 -0 -0 -0 -0 -0 -0 -0 -0 -0 -0 -0 -0 -0 -0 -0 -0 -0 -0 -0 -0 -0 -0 -0 -0 -0 -0 -0 -0 -0 -0 -56 -0 -0 -0 -0 -0
Wind_Speed
14 13 13 12 12 14 15 17 19 20 22 23 23 22 22 23 25 28 30 33 35 32 29 25 20 19 21 22 24 26 24 22 20 21 19 16 12 9 9 9 6 6 6
16 16 11 14 16 15 16 17 18 19 21 21 21 22 22 23 26 26 28 33 34 34 33 31 28 27 29 29 32 33 31 26 24 24 24 22 17 15 12 11 9 7 7
18 16 14 17 18 17 16 17 18 16 17 19 19 21 23 26 29 32 33 32 35 38 34 32 30 30 31 35 33 33 35 34 31 27 29 27 23 19 17 15 12 10 8
21 18 16 17 16 15 15 15 16 19 20 21 23 27 27 30 30 32 31 32 36 38 40 38 36 34 30 39 36 35 35 33 32 31 30 33 33 28 21 18 14 12 11
16 15 16 16 15 16 19 21 22 24 24 25 26 32 32 32 33 30 30 29 29 34 35 38 37 34 36 35 35 33 31 29 29 33 34 32 34 32 25 19 19 15 14
15 16 14 16 18 19 20 19 21 22 25 28 31 33 28 28 30 34 32 27 29 34 37 37 39 34 39 40 39 34 33 35 40 31 30 32 36 32 29 22 22 18 18
13 16 17 17 17 17 18 18 19 23 25 23 26 28 28 28 23 29 31 30 32 33 31 29 32 34 35 38 37 37 40 36 35 35 35 34 35 34 29 26 26 23 20
14 16 16 17 16 17 18 19 22 23 23 23 25 28 32 30 26 23 22 22 25 26 28 30 29 34 36 33 33 34 38 41 42 36 39 37 37 34 30 28 28 26 24
16 18 18 18 17 18 20 20 22 24 27 26 24 25 30 30 34 26 26 21 21 22 23 25 25 29 31 28 31 35 42 44 48 42 34 36 36 37 36 30 28 26 26
17 18 18 18 19 20 22 23 23 24 25 29 29 24 24 27 32 37 27 28 28 26 26 25 29 30 30 31 38 37 39 43 47 45 36 37 41 41 39 35 29 26 23
17 18 19 19 21 22 23 25 26 26 26 29 30 30 30 28 27 31 35 33 31 33 32 28 26 31 37 38 38 41 42 42 44 45 45 45 46 45 42 37 31 23 20
17 19 21 22 24 25 27 29 29 29 30 31 32 33 32 32 34 34 37 37 38 37 36 34 31 27 34 42 43 45 45 45 45 45 44 45 45 44 41 38 29 23 22
20 22 23 25 26 28 29 30 31 33 34 35 36 36 34 35 35 37 39 39 36 42 38 38 37 35 32 33 40 44 45 45 45 46 46 47 46 44 41 36 29 26 26
19 21 23 24 26 28 30 32 34 36 36 38 38 38 39 38 36 35 35 40 46 42 41 42 38 38 40 39 39 41 41 44 45 45 45 45 44 42 38 37 34 31 28
18 20 22 26 29 31 33 34 35 37 37 37 38 38 38 36 34 34 33 34 38 43 43 42 43 39 43 43 42 40 40 42 47 48 47 47 44 42 38 36 34 33 29
19 23 26 29 30 32 33 35 37 38 40 39 37 38 37 36 35 34 33 31 31 35 42 42 43 43 44 47 46 46 45 45 45 46 47 47 47 44 39 32 31 27 23
22 25 28 31 32 34 36 37 38 39 39 39 38 38 37 34 33 33 32 31 31 32 39 43 40 41 46 47 48 50 49 48 48 49 49 50 49 49 38 28 28 26 24
24 27 29 32 35 37 37 38 38 37 38 38 37 36 36 34 34 33 31 29 29 30 35 42 40 39 39 41 44 46 45 46 46 45 48 47 46 42 34 28 24 24 22
27 28 31 34 36 37 37 36 35 34 34 34 34 34 35 34 34 32 30 29 29 30 31 34 38 38 38 37 42 42 42 41 42 45 46 44 43 40 31 26 25 27 27
28 30 33 34 35 35 34 34 33 34 34 34 34 35 36 35 33 32 31 30 29 29 30 31 34 36 38 37 37 43 44 41 45 40 41 40 41 37 27 28 27 28 28
30 32 34 34 34 33 32 33 35 36 36 38 36 32 30 28 26 25 28 29 29 30 31 32 34 35 36 39 39 38 41 41 42 42 42 41 36 35 33 30 31 31 31
31 32 33 32 32 31 33 35 36 36 37 35 36 35 32 29 26 26 24 25 26 29 28 27 29 31 34 34 36 38 39 39 40 31 29 35 32 34 34 31 33 33 34
30 31 30 30 30 31 33 34 38 37 35 35 37 36 36 33 31 30 30 29 28 24 23 25 27 28 30 30 31 34 35 36 38 37 39 41 35 35 34 30 30 30 31
30 30 29 28 30 30 32 36 38 34 35 36 35 35 35 27 30 30 29 29 29 26 24 21 23 23 26 25 24 29 34 38 38 38 37 43 38 37 29 25 27 27 27
29 29 28 29 29 30 34 35 36 34 36 36 33 34 30 30 29 34 35 28 28 29 23 19 19 20 22 21 22 25 31 33 37 35 30 35 39 34 28 26 25 26 23
26 26 27 28 29 32 33 34 33 35 35 36 38 37 37 35 36 41 36 28 26 27 23 19 17 16 17 20 20 24 27 29 34 34 34 35 35 29 29 26 24 23 20
Wind_Direction
290 299 304 316 315 307 306 307 308 310 308 306 307 308 309 312 314 313 307 303 302 303 303 304 297 299 302 306 309 309 310 310 311 312 315 317 315 304 310 312 288 243 235
288 290 304 306 307 310 310 309 311 311 311 310 307 309 309 311 311 309 307 307 304 301 298 299 298 298 301 303 304 303 305 308 308 308 308 310 312 311 306 307 302 272 254
287 290 301 306 305 309 314 315 315 320 318 315 316 313 314 313 310 306 305 298 297 298 300 301 298 296 297 296 300 301 300 299 301 303 303 306 306 306 306 303 298 294 277
279 294 304 308 319 317 318 319 322 319 318 314 309 308 311 314 310 309 307 300 293 295 294 294 295 296 298 292 295 297 297 299 299 300 301 298 299 302 302 299 293 291 292
290 301 307 312 318 316 313 309 311 309 310 312 311 306 308 310 311 314 314 306 293 293 289 294 291 290 294 295 295 297 297 300 301 299 297 297 298 297 300 297 296 288 290
290 300 314 317 318 319 316 313 316 313 313 314 312 308 313 317 321 311 316 316 308 303 297 294 293 295 292 285 291 293 295 298 300 299 297 299 297 298 298 294 294 290 291
305 309 317 322 320 321 320 322 323 319 319 325 324 323 320 324 329 318 315 312 313 312 310 306 300 300 297 293 286 285 291 292 301 300 295 298 298 296 301 298 292 292 288
320 321 324 326 328 326 323 322 323 325 326 327 324 323 321 326 332 334 334 323 320 322 321 317 311 305 307 299 294 289 289 286 286 293 293 295 292 296 303 300 293 290 288
322 320 323 326 329 327 325 324 323 320 317 323 324 321 322 322 323 331 332 330 326 326 325 323 319 312 313 309 299 296 283 279 274 287 290 290 293 293 296 301 297 291 288
333 333 330 328 328 329 327 324 324 322 321 316 318 321 319 320 321 319 326 324 321 320 320 320 314 308 307 303 294 295 290 276 262 272 288 292 288 287 290 296 297 293 288
335 337 339 337 334 331 329 328 326 323 321 317 316 316 315 316 315 315 315 316 316 313 314 316 316 307 294 294 292 283 273 261 259 271 275 276 277 281 290 293 293 293 285
329 332 331 329 327 326 324 323 322 322 321 319 316 315 315 315 316 314 312 314 312 312 311 308 308 309 302 284 280 277 272 268 264 262 256 265 276 283 289 288 289 295 291
326 326 327 327 326 324 323 322 320 320 319 317 315 314 313 312 312 310 310 308 308 306 305 303 303 303 304 304 296 287 282 276 274 276 273 273 277 285 284 286 285 290 292
334 333 332 332 330 327 324 321 319 318 317 315 313 312 310 310 310 310 309 309 307 306 304 303 303 300 297 298 300 299 295 287 282 283 286 285 287 289 288 284 280 283 285
337 335 334 330 328 325 322 321 321 320 320 318 315 314 312 312 312 310 309 308 307 307 305 304 302 301 293 294 296 298 296 294 286 285 285 284 287 287 288 285 282 278 279
332 330 329 328 327 325 322 321 320 321 319 319 318 315 315 314 313 313 311 308 305 303 302 305 302 301 298 292 291 290 291 292 290 289 286 284 283 282 283 283 285 280 277
328 327 326 326 325 324 321 319 320 320 319 319 319 317 316 316 315 314 313 310 306 304 303 306 305 304 299 295 290 286 285 287 286 284 284 282 280 273 273 279 283 279 280
325 325 325 323 322 321 321 320 320 321 320 320 321 320 319 319 316 315 315 311 308 307 306 305 307 307 305 301 296 290 288 285 284 284 281 279 276 271 269 273 279 280 284
323 325 324 323 321 321 321 321 322 324 325 324 324 324 322 321 320 319 317 314 312 311 309 307 307 307 306 306 300 294 290 288 285 279 275 274 274 271 266 268 275 279 282
323 323 324 323 323 323 323 323 325 326 325 324 324 323 322 321 319 317 315 311 309 308 308 307 307 308 307 307 302 295 291 290 281 281 273 272 270 269 266 269 274 279 279
323 323 323 324 323 324 325 325 324 324 323 321 324 328 328 327 322 318 317 313 309 306 306 305 304 305 307 306 301 300 294 293 287 276 268 269 268 267 263 266 271 275 274
323 324 325 326 326 327 324 320 323 323 321 325 327 330 331 329 324 317 309 305 306 306 300 299 301 303 305 306 305 299 295 293 284 282 271 266 268 265 260 263 268 272 268
324 325 328 331 332 329 322 323 323 323 326 328 329 333 333 335 332 327 321 317 312 301 283 289 294 297 301 303 304 302 297 290 282 275 270 260 263 263 261 262 270 271 266
322 324 327 331 333 331 325 323 322 327 329 330 336 339 338 340 341 338 334 328 322 316 307 294 288 289 295 301 302 301 296 288 284 275 269 255 257 257 262 262 268 272 268
324 326 327 328 331 330 324 324 324 329 332 335 342 345 349 347 345 342 337 333 328 323 315 297 290 287 291 293 299 302 295 291 283 275 269 252 250 252 253 259 270 269 268
330 331 329 328 327 324 325 325 327 331 335 335 333 342 347 350 349 345 345 344 337 332 328 316 307 287 282 289 288 288 293 291 283 273 258 246 247 245 246 256 266 268 268